DELTA 1 DEB, 42092

Orbit data source: Space-Track

DELTA 1 DEB, 42092 is space debris in SSO originally from a launch on Sun, 15 Dec 1968 UTC launched from the Air Force Western Test Range (AFWTR). Debris objects in space refer to the collection of defunct objects orbiting the Earth. Examples of debris include non-operational satellites, rocket bodies, and fragments generated from explosions, collisions, or faulty payload assembly.

Loading next visibility...
Identifier
42092, 1968-114U
Orbit
SSO
Country
Flag of USUS
Related business
Manufacturer
Aerojet
Mission
Spacecraft
Bus & Motor
Unknown
Mass
Unknown
Launch date (UTC)
1968-12-15 (57 years ago)
Launch vehicle
Unknown
Launch site
Air Force Western Test Range (AFWTR)
Object type
Payload
Rocket body
Debris
Shape & HBR
Unknown shape, 0.1 m
Radar Cross Section
Small (<0.1 m²)

Expand to show TLE details & history
Last TLE update: 23 hours ago

TLE from 23 hours ago
0 DELTA 1 DEB
1 42092U 68114U   26036.59226394  .00000517  00000-0  32050-2 0  9999
2 42092 101.6528 147.8404 0029858  62.8221 297.5894 12.60700431561384
Epoch: 2026-02-05T14:12Z
TLE epoch observation values (Epoch: 2026-02-05T14:12:51.604Z)
Latitude
-0.00004°
Longitude
158.88311°
Altitude
1,411.915 km
Speed
7.16 km/s
True Right ascension
09h 51m 21s
True Declination
0° 00' 00"
Sunlit
Object was in full shadow at epoch
Visualization orbit readout
Latitude
Unknown
Longitude
Unknown
Altitude
Unknown
Speed
Unknown
Apparent Right ascension
Unknown
Apparent Declination
Unknown
Sunlit
N/A
Visualization observer readout
Local Sidereal Time
15:02:48
Azimuth
Unknown
Elevation
Unknown
Doppler factor
Unknown
Orbital elements
Apogee altitude
1,440.858 km
Perigee altitude
1,394.305 km
Semi-major axis
7,795.719 km
Eccentricity
0.00299
Inclination
101.6528°
RAAN
147.8404°
Arg. of periapsis
62.8221°
True anomaly
297.28563°
Mean anomaly
297.5894°
Eccentric anomaly
297.43757°
Mean motion
3.15325 °/min
Orbital period
114.17 mins
BSTAR
0.003205
Loading maneuver chart data...
Computing Atmospheric mass density...
Loading historical data...
Loading historical data...
Loading historical data...
Loading historical data...
Loading historical data...
Loading historical data...
Loading historical data...

Documentation

Showing up to 5 results
|